DW6615 Weather Reports


Display with metric or nautical units.
time (UTC)temp
F
wind
direction
speed
MPH
gust
MPH
rain 1hr
in
rain 24hr
in
rain mn
in
humidity
%
barometer
mb
20260505153347 74 202 3.0 8.0 0.00 0.03 0.03 52 1009.9
20260505153108 73 215 4.0 8.0 0.00 0.03 0.03 52 1009.6
20260505152909 74 231 2.0 8.0 0.00 0.03 0.03 55 1010.1
20260505152356 73 171 4.0 11.0 0.00 0.03 0.03 52 1010.1
20260505151855 73 251 4.0 11.0 0.00 0.03 0.03 54 1010.2
20260505151505 72 214 3.0 11.0 0.00 0.03 0.03 56 1009.8
20260505151343 73 221 6.0 11.0 0.00 0.03 0.03 55 1010.3
20260505150847 73 196 4.0 10.0 0.00 0.03 0.03 55 1010.3
20260505150355 73 254 3.0 14.0 0.00 0.03 0.03 57 1010.3
20260505150115 72 208 4.0 14.0 0.00 0.03 0.03 54 1009.8
20260505140351 69 189 4.0 9.0 0.00 0.03 0.03 61 1010.7
20260505140124 68 197 3.0 10.0 0.00 0.03 0.03 62 1010.3
20260505130109 64 212 2.0 8.0 0.00 0.03 0.03 69 1010.8
20260505124849 64 249 3.0 7.0 0.00 0.03 0.03 71 1011.0
20260505124616 63 243 2.0 8.0 0.00 0.03 0.03 72 1010.6
20260505124337 64 181 2.0 8.0 0.00 0.03 0.03 74 1011.0
20260505123844 63 208 3.0 8.0 0.00 0.03 0.03 74 1010.9
20260505123351 63 220 1.0 5.0 0.00 0.03 0.03 75 1010.8
20260505123106 62 180 2.0 7.0 0.00 0.03 0.03 74 1010.4
20260505122852 62 195 1.0 7.0 0.00 0.03 0.03 76 1010.7
20260505122337 62 226 2.0 7.0 0.00 0.03 0.03 76 1010.6
20260505121845 62 178 2.0 7.0 0.00 0.03 0.03 76 1010.6
20260505121608 61 188 2.0 7.0 0.00 0.03 0.03 77 1010.3
20260505121414 61 248 3.0 6.0 0.00 0.03 0.03 76 1010.7
20260505120418 61 242 1.0 5.0 0.00 0.03 0.03 77 1010.6
20260505120112 60 197 1.0 5.0 0.00 0.03 0.03 77 1010.2
20260505115838 61 205 1.0 5.0 0.00 0.03 0.03 77 1010.6
20260505115348 60 198 1.0 4.0 0.00 0.03 0.03 79 1010.6
20260505114849 60 185 1.0 4.0 0.00 0.03 0.03 80 1010.7
20260505114611 59 160 1.0 3.0 0.00 0.03 0.03 80 1010.3
20260505114358 59 174 1.0 3.0 0.00 0.03 0.03 81 1010.6
20260505113918 58 274 1.0 2.0 0.00 0.03 0.03 83 1010.7
20260505113344 58 170 0.0 2.0 0.00 0.03 0.03 86 1010.4
20260505113123 57 175 0.0 2.0 0.00 0.03 0.03 86 1010.1
20260505112847 57 163 0.0 2.0 0.00 0.03 0.03 88 1010.3
20260505112336 56 187 0.0 2.0 0.00 0.03 0.03 92 1010.5
20260505111845 56 220 0.0 0.0 0.00 0.03 0.03 93 1010.5
20260505111615 55 334 0.0 0.0 0.00 0.03 0.03 94 1010.1
20260505111355 55 334 0.0 1.0 0.00 0.03 0.03 95 1010.3
20260505110839 54 334 0.0 1.0 0.00 0.03 0.03 96 1010.2
20260505110406 53 334 0.0 1.0 0.00 0.03 0.03 97 1010.2
20260505110106 52 334 0.0 0.0 0.00 0.03 0.03 97 1009.9
20260505101853 51 270 0.0 0.0 0.00 0.03 0.03 95 1010.0
20260505101614 51 270 0.0 0.0 0.00 0.03 0.03 95 1009.6
20260505101335 51 270 0.0 1.0 0.00 0.03 0.03 95 1010.1
20260505100119 51 270 0.0 0.0 0.00 0.03 0.03 95 1009.7
20260505095844 51 270 0.0 0.0 0.00 0.03 0.03 95 1010.1
20260505095409 52 270 0.0 1.0 0.00 0.03 0.03 94 1010.0
20260505094854 52 270 0.0 2.0 0.00 0.03 0.03 94 1010.0
20260505094618 51 270 0.0 2.0 0.00 0.03 0.03 94 1009.7
20260505094342 52 270 0.0 2.0 0.00 0.03 0.03 94 1010.0
20260505093846 52 270 0.0 2.0 0.00 0.03 0.03 94 1010.0
20260505093356 52 333 0.0 2.0 0.00 0.03 0.03 94 1010.0
20260505093111 52 342 0.0 2.0 0.00 0.03 0.03 93 1009.7
20260505092856 53 342 0.0 2.0 0.00 0.03 0.03 93 1009.9
20260505092344 53 342 0.0 0.0 0.00 0.03 0.03 93 1009.8
20260505091849 53 342 0.0 0.0 0.00 0.03 0.03 93 1009.8
20260505091620 53 342 0.0 0.0 0.01 0.03 0.03 93 1009.5
20260505091356 53 342 0.0 2.0 0.01 0.03 0.03 93 1009.8
20260505090917 54 342 0.0 2.0 0.01 0.03 0.03 93 1009.9
20260505090343 54 342 0.0 2.0 0.03 0.03 0.03 92 1009.9
20260505090121 53 342 0.0 2.0 0.03 0.03 0.03 92 1009.6
20260505085845 54 342 0.0 2.0 0.03 0.03 0.03 92 1010.0
20260505085353 54 342 0.0 2.0 0.03 0.03 0.03 91 1010.1
20260505084854 54 342 1.0 2.0 0.03 0.03 0.03 90 1010.1
20260505084615 54 308 0.0 2.0 0.03 0.03 0.03 90 1009.7
20260505084338 55 308 0.0 1.0 0.03 0.03 0.03 90 1010.0
20260505083843 55 308 0.0 2.0 0.03 0.03 0.03 89 1010.0
20260505083352 55 316 1.0 2.0 0.03 0.03 0.03 88 1009.9
20260505083106 55 308 0.0 2.0 0.03 0.03 0.03 87 1009.6
20260505082850 56 322 2.0 2.0 0.03 0.03 0.03 86 1009.9
20260505082356 57 298 0.0 2.0 0.03 0.03 0.03 84 1010.0
20260505081613 57 298 0.0 2.0 0.02 0.02 0.02 82 1009.7
20260505081357 58 299 1.0 4.0 0.02 0.02 0.02 78 1010.0
20260505080859 59 326 0.0 7.0 0.02 0.02 0.02 74 1009.9
20260505080344 60 312 3.0 7.0 0.00 0.00 0.00 70 1010.1
20260505080120 59 272 3.0 7.0 0.00 0.00 0.00 70 1009.8
20260505075846 60 286 2.0 4.0 0.00 0.00 0.00 69 1009.9
20260505075355 59 235 0.0 4.0 0.00 0.00 0.00 69 1009.7
20260505074840 59 184 1.0 7.0 0.00 0.00 0.00 69 1009.5
20260505074608 59 208 1.0 7.0 0.00 0.00 0.00 68 1009.1
20260505074347 60 157 2.0 7.0 0.00 0.00 0.00 68 1009.3
20260505073851 59 197 2.0 4.0 0.00 0.00 0.00 67 1009.5
20260505073342 59 181 1.0 4.0 0.00 0.00 0.00 67 1009.4
20260505073123 59 150 1.0 5.0 0.00 0.00 0.00 68 1009.1
20260505072844 59 196 2.0 7.0 0.00 0.00 0.00 67 1009.5
20260505072353 59 195 2.0 7.0 0.00 0.00 0.00 67 1009.5
20260505071837 59 213 2.0 7.0 0.00 0.00 0.00 67 1009.7
20260505071625 59 187 2.0 7.0 0.00 0.00 0.00 67 1009.3
20260505071345 60 228 2.0 7.0 0.00 0.00 0.00 67 1009.6
20260505070848 60 212 2.0 5.0 0.00 0.00 0.00 64 1009.6
20260505070358 60 193 1.0 5.0 0.00 0.00 0.00 64 1009.7
20260505070115 59 177 1.0 5.0 0.00 0.00 0.00 65 1009.3
20260505065857 59 175 1.0 4.0 0.00 0.00 0.00 64 1009.5
20260505065342 59 208 0.0 4.0 0.00 0.00 0.00 64 1009.6
20260505064849 59 231 1.0 4.0 0.00 0.00 0.00 64 1009.6
20260505064616 59 215 0.0 4.0 0.00 0.00 0.00 63 1009.3
20260505064336 59 231 1.0 4.0 0.00 0.00 0.00 63 1009.7
20260505063845 59 192 2.0 3.0 0.00 0.00 0.00 62 1009.7
20260505063416 60 189 1.0 3.0 0.00 0.00 0.00 62 1009.7
20260505063140 59 169 0.0 3.0 0.00 0.00 0.00 62 1009.4
20260505062836 60 189 1.0 3.0 0.00 0.00 0.00 62 1009.7
20260505062346 60 199 1.0 4.0 0.00 0.00 0.00 61 1009.7
20260505061914 60 210 1.0 4.0 0.00 0.00 0.00 61 1009.7
20260505061640 60 191 1.0 5.0 0.00 0.00 0.00 61 1009.4
20260505061342 60 222 1.0 5.0 0.00 0.00 0.00 61 1009.7
20260505060848 60 197 2.0 5.0 0.00 0.00 0.00 60 1009.8
20260505060357 61 168 1.0 5.0 0.00 0.00 0.00 60 1009.8
20260505060114 60 169 1.0 5.0 0.00 0.00 0.00 60 1009.5
20260505055854 61 220 1.0 5.0 0.00 0.00 0.00 60 1009.7
20260505055402 61 188 2.0 5.0 0.00 0.00 0.00 59 1009.8
20260505054621 60 206 2.0 6.0 0.00 0.00 0.00 59 1009.4
20260505054341 61 214 0.0 5.0 0.00 0.00 0.00 59 1009.7
20260505053408 61 219 1.0 3.0 0.00 0.00 0.00 59 1009.8
20260505053110 60 197 0.0 3.0 0.00 0.00 0.00 59 1009.6
20260505052852 61 249 1.0 3.0 0.00 0.00 0.00 59 1009.8
20260505052341 61 224 0.0 3.0 0.00 0.00 0.00 59 1009.7
20260505051848 61 226 0.0 5.0 0.00 0.00 0.00 58 1009.8
20260505051618 60 237 0.0 5.0 0.00 0.00 0.00 58 1009.5
20260505051357 61 210 0.0 5.0 0.00 0.00 0.00 58 1009.8
20260505050843 61 209 0.0 3.0 0.00 0.00 0.00 58 1009.7
20260505050353 61 250 0.0 3.0 0.00 0.00 0.00 58 1009.8
20260505050116 61 241 1.0 3.0 0.00 0.00 0.00 58 1009.5
20260505041620 61 218 0.0 6.0 0.00 0.00 0.00 56 1009.4
20260505041345 62 189 0.0 6.0 0.00 0.00 0.00 56 1009.7
20260505040912 62 213 1.0 5.0 0.00 0.00 0.00 56 1009.7
20260505040340 61 181 1.0 4.0 0.00 0.00 0.00 56 1009.6
20260505040118 61 200 0.0 4.0 0.00 0.00 0.00 56 1009.3
20260505035844 61 195 1.0 4.0 0.00 0.00 0.00 57 1009.6
20260505035352 61 199 0.0 3.0 0.00 0.00 0.00 57 1009.5
20260505034838 60 209 0.0 3.0 0.00 0.00 0.00 57 1009.5
20260505034513 60 210 0.0 3.0 0.00 0.00 0.00 58 1009.1
20260505034409 61 202 0.0 0.0 0.00 0.00 0.00 58 1009.4
20260505033916 61 202 0.0 0.0 0.00 0.00 0.00 57 1009.4
20260505033106 61 217 0.0 2.0 0.00 0.00 0.00 56 1009.2
20260505032848 61 229 0.0 2.0 0.00 0.00 0.00 56 1009.5
20260505032350 62 246 0.0 2.0 0.00 0.00 0.00 56 1009.5
20260505031836 62 208 327.0 327.0 0.00 0.00 0.00 54 1009.4
20260505031606 61 222 0.0 3.0 0.00 0.00 0.00 54 1009.3
20260505031347 62 198 0.0 3.0 0.00 0.00 0.00 54 1009.5
20260505030852 62 199 1.0 3.0 0.00 0.00 0.00 54 1009.5
20260505030401 62 195 1.0 2.0 0.00 0.00 0.00 54 1009.6
20260505030122 62 206 0.0 3.0 0.00 0.00 0.00 54 1009.3
20260505025843 62 210 0.0 3.0 0.00 0.00 0.00 54 1009.6
20260505025347 62 214 0.0 4.0 0.00 0.00 0.00 53 1009.7
20260505024852 62 202 1.0 4.0 0.00 0.00 0.00 53 1009.6
20260505024620 62 193 0.0 5.0 0.00 0.00 0.00 53 1009.4
20260505024342 62 183 0.0 5.0 0.00 0.00 0.00 53 1009.7
20260505023846 63 208 0.0 2.0 0.00 0.00 0.00 52 1009.6
20260505023339 63 248 0.0 3.0 0.00 0.00 0.00 52 1009.6
20260505023118 62 193 0.0 4.0 0.00 0.00 0.00 52 1009.4
20260505022844 63 189 1.0 4.0 0.00 0.00 0.00 51 1009.7
20260505022406 63 168 2.0 4.0 0.00 0.00 0.00 51 1009.8
20260505021847 63 191 0.0 5.0 0.00 0.00 0.00 52 1009.8
20260505021610 62 170 0.0 5.0 0.00 0.00 0.00 51 1009.6
20260505021411 63 168 1.0 5.0 0.00 0.00 0.00 51 1009.9
20260505020914 63 213 1.0 4.0 0.00 0.00 0.00 51 1009.9
20260505020341 63 206 1.0 3.0 0.00 0.00 0.00 51 1009.9
20260505020114 63 185 0.0 3.0 0.00 0.00 0.00 50 1009.7
20260505015855 64 184 1.0 3.0 0.00 0.00 0.00 50 1009.9
20260505015345 64 244 1.0 5.0 0.00 0.00 0.00 50 1009.9
20260505014848 64 196 2.0 5.0 0.00 0.00 0.00 50 1009.9
20260505014611 63 192 1.0 5.0 0.00 0.00 0.00 50 1009.7
20260505014352 64 197 1.0 4.0 0.00 0.00 0.00 50 1009.9
20260505013854 64 199 1.0 4.0 0.00 0.00 0.00 50 1009.8
20260505013344 64 201 1.0 5.0 0.00 0.00 0.00 49 1009.8
20260505013118 64 195 0.0 6.0 0.00 0.00 0.00 49 1009.5
20260505012839 64 205 1.0 6.0 0.00 0.00 0.00 49 1009.8
20260505012343 64 197 2.0 6.0 0.00 0.00 0.00 49 1009.7
20260505011855 64 266 1.0 6.0 0.00 0.00 0.00 49 1009.6
20260505011619 64 166 2.0 8.0 0.00 0.00 0.00 49 1009.4
20260505011339 65 203 3.0 8.0 0.00 0.00 0.00 49 1009.5
20260505010843 64 165 3.0 8.0 0.00 0.00 0.00 49 1009.5
20260505010349 64 194 3.0 8.0 0.00 0.00 0.00 49 1009.5
20260505010114 64 152 2.0 7.0 0.00 0.00 0.00 50 1009.2
20260505005844 64 222 1.0 6.0 0.00 0.00 0.00 49 1009.5
20260505005414 64 180 1.0 5.0 0.00 0.00 0.00 50 1009.4
20260505004846 64 216 1.0 4.0 0.00 0.00 0.00 49 1009.4
20260505004608 64 187 2.0 4.0 0.00 0.00 0.00 49 1009.2
20260505004409 64 155 327.0 327.0 0.00 0.00 0.00 49 1009.2
20260505003913 64 189 1.0 4.0 0.00 0.00 0.00 49 1009.3
20260505003343 65 156 2.0 4.0 0.00 0.00 0.00 49 1009.3
20260505003007 64 158 1.0 4.0 0.00 0.00 0.00 49 1009.0
20260505002901 65 162 2.0 6.0 0.00 0.00 0.00 49 1009.3
20260505002349 65 222 1.0 6.0 0.00 0.00 0.00 49 1009.2
20260505001914 65 193 2.0 6.0 0.00 0.00 0.00 48 1009.2
20260505001621 65 180 1.0 6.0 0.00 0.00 0.00 48 1009.0
20260505001339 65 194 2.0 6.0 0.00 0.00 0.00 48 1009.1
20260505000902 66 181 2.0 5.0 0.00 0.00 0.00 47 1009.1
20260505000113 66 175 1.0 6.0 0.00 0.00 0.00 47 1008.9
20260504235854 66 203 2.0 8.0 0.00 0.00 0.00 46 1009.0
20260504235343 66 205 3.0 12.0 0.00 0.00 0.00 46 1009.0
20260504234911 67 202 2.0 12.0 0.00 0.00 0.00 46 1008.9
20260504234617 66 213 5.0 12.0 0.00 0.00 0.00 46 1008.8
20260504234338 67 168 4.0 9.0 0.00 0.00 0.00 46 1008.8
20260504233843 67 176 4.0 12.0 0.00 0.00 0.00 45 1008.9
20260504233353 67 153 5.0 12.0 0.00 0.00 0.00 45 1008.8
20260504233110 67 178 4.0 12.0 0.00 0.00 0.00 45 1008.7
20260504232913 68 185 2.0 8.0 0.00 0.00 0.00 45 1008.8
20260504232338 68 158 3.0 11.0 0.00 0.00 0.00 44 1008.7
20260504231840 68 201 4.0 15.0 0.00 0.00 0.00 44 1008.7
20260504231605 68 178 4.0 15.0 0.00 0.00 0.00 44 1008.5
20260504231345 68 202 4.0 15.0 0.00 0.00 0.00 44 1008.6
20260504230851 68 188 4.0 11.0 0.00 0.00 0.00 43 1008.6
20260504230419 69 204 4.0 14.0 0.00 0.00 0.00 44 1008.6
20260504230120 68 223 3.0 14.0 0.00 0.00 0.00 44 1008.4
20260504225842 69 179 4.0 14.0 0.00 0.00 0.00 43 1008.5
20260504225347 69 245 6.0 14.0 0.00 0.00 0.00 43 1008.5
20260504224849 70 218 5.0 11.0 0.00 0.00 0.00 43 1008.5
20260504224419 70 176 4.0 9.0 0.00 0.00 0.00 43 1008.4
20260504223840 71 189 2.0 8.0 0.00 0.00 0.00 43 1008.4
20260504223350 71 220 3.0 8.0 0.00 0.00 0.00 41 1008.4
20260504223112 70 189 1.0 8.0 0.00 0.00 0.00 41 1008.2
20260504222914 71 201 3.0 7.0 0.00 0.00 0.00 41 1008.4
20260504222342 71 185 2.0 9.0 0.00 0.00 0.00 40 1008.4
20260504221848 71 224 1.0 9.0 0.00 0.00 0.00 40 1008.5
20260504221615 70 199 2.0 9.0 0.00 0.00 0.00 40 1008.3
20260504221335 71 193 2.0 8.0 0.00 0.00 0.00 42 1008.5
20260504220844 71 199 3.0 10.0 0.00 0.00 0.00 41 1008.5
20260504220354 71 208 3.0 10.0 0.00 0.00 0.00 41 1008.6
20260504220115 70 156 3.0 10.0 0.00 0.00 0.00 40 1008.5
20260504215917 71 202 3.0 10.0 0.00 0.00 0.00 41 1008.6
20260504215341 71 192 4.0 10.0 0.00 0.00 0.00 40 1008.6
20260504214910 71 206 3.0 9.0 0.00 0.00 0.00 41 1008.7
20260504214617 70 185 4.0 9.0 0.00 0.00 0.00 40 1008.6
20260504214357 71 219 4.0 8.0 0.00 0.00 0.00 41 1008.7
20260504213844 71 265 2.0 9.0 0.00 0.00 0.00 41 1008.7
20260504213355 71 246 2.0 10.0 0.00 0.00 0.00 42 1008.7
20260504213118 70 211 2.0 10.0 0.00 0.00 0.00 41 1008.6
20260504212840 71 185 4.0 10.0 0.00 0.00 0.00 40 1008.7
20260504212347 71 186 3.0 11.0 0.00 0.00 0.00 40 1008.7
20260504211850 71 243 2.0 12.0 0.00 0.00 0.00 42 1008.7
20260504211615 70 233 4.0 12.0 0.00 0.00 0.00 41 1008.6
20260504211355 71 202 4.0 12.0 0.00 0.00 0.00 42 1008.7
20260504210901 71 185 1.0 11.0 0.00 0.00 0.00 42 1008.7
20260504210351 71 231 2.0 11.0 0.00 0.00 0.00 40 1008.8
20260504210115 70 201 4.0 11.0 0.00 0.00 0.00 43 1008.7
20260504205911 71 187 4.0 11.0 0.00 0.00 0.00 40 1008.7
20260504205337 70 231 4.0 10.0 0.00 0.00 0.00 41 1008.9
20260504204846 70 154 5.0 11.0 0.00 0.00 0.00 40 1008.9
20260504204623 70 181 4.0 11.0 0.00 0.00 0.00 40 1008.8
20260504204354 71 195 4.0 11.0 0.00 0.00 0.00 40 1008.9
20260504203842 70 179 2.0 8.0 0.00 0.00 0.00 41 1009.0
20260504203352 70 239 5.0 14.0 0.00 0.00 0.00 41 1008.9
20260504203115 70 233 3.0 13.0 0.00 0.00 0.00 41 1008.9
20260504202918 71 199 7.0 13.0 0.00 0.00 0.00 40 1009.0
20260504202344 71 218 4.0 13.0 0.00 0.00 0.00 40 1009.0
20260504201850 71 202 4.0 11.0 0.00 0.00 0.00 42 1009.2
20260504201617 70 233 2.0 11.0 0.00 0.00 0.00 41 1009.1
20260504201342 70 194 5.0 12.0 0.00 0.00 0.00 40 1009.2
20260504200849 71 196 4.0 12.0 0.00 0.00 0.00 40 1009.3
20260504200359 71 254 6.0 12.0 0.00 0.00 0.00 40 1009.4
20260504200115 70 228 5.0 12.0 0.00 0.00 0.00 42 1009.4
20260504195858 71 195 4.0 12.0 0.00 0.00 0.00 42 1009.4
20260504195346 71 202 5.0 12.0 0.00 0.00 0.00 40 1009.4
20260504194850 70 228 2.0 13.0 0.00 0.00 0.00 40 1009.4
20260504194614 70 186 3.0 13.0 0.00 0.00 0.00 41 1009.4
20260504194419 70 197 5.0 13.0 0.00 0.00 0.00 41 1009.5
20260504193842 70 302 6.0 13.0 0.00 0.00 0.00 39 1009.5
20260504193350 70 278 3.0 10.0 0.00 0.00 0.00 43 1009.7
20260504193106 70 249 5.0 12.0 0.00 0.00 0.00 42 1009.6
20260504192851 70 247 2.0 12.0 0.00 0.00 0.00 39 1009.6
20260504192358 70 249 4.0 15.0 0.00 0.00 0.00 41 1009.7
20260504191844 70 192 6.0 14.0 0.00 0.00 0.00 40 1009.7
20260504191606 70 213 5.0 14.0 0.00 0.00 0.00 39 1009.6
20260504191413 71 235 5.0 19.0 0.00 0.00 0.00 40 1009.6
20260504190855 70 242 6.0 12.0 0.00 0.00 0.00 42 1009.6
20260504190341 70 256 327.0 327.0 0.00 0.00 0.00 41 1009.6
20260504190134 69 271 2.0 11.0 0.00 0.00 0.00 42 1009.7
20260504185849 70 232 5.0 11.0 0.00 0.00 0.00 41 1009.8
20260504185354 69 274 5.0 15.0 0.00 0.00 0.00 42 1009.9
20260504184857 69 283 6.0 15.0 0.00 0.00 0.00 42 1010.1
20260504184615 69 181 4.0 11.0 0.00 0.00 0.00 40 1010.0
20260504184337 70 222 6.0 11.0 0.00 0.00 0.00 41 1010.2
20260504183845 70 151 3.0 11.0 0.00 0.00 0.00 42 1010.1
20260504183357 69 241 5.0 15.0 0.00 0.00 0.00 40 1010.1
20260504183111 69 284 5.0 15.0 0.00 0.00 0.00 43 1010.1
20260504182837 69 316 3.0 15.0 0.00 0.00 0.00 42 1010.3
20260504182346 70 219 6.0 14.0 0.00 0.00 0.00 41 1010.4
20260504181914 69 234 2.0 7.0 0.00 0.00 0.00 43 1010.3
20260504181614 69 186 2.0 10.0 0.00 0.00 0.00 44 1010.3
20260504181400 69 196 3.0 11.0 0.00 0.00 0.00 42 1010.4
20260504180840 68 181 5.0 12.0 0.00 0.00 0.00 42 1010.4
20260504180409 68 224 4.0 12.0 0.00 0.00 0.00 42 1010.5
20260504180125 68 195 5.0 12.0 0.00 0.00 0.00 42 1010.6
20260504175847 68 274 4.0 15.0 0.00 0.00 0.00 41 1010.6
20260504175356 68 190 3.0 15.0 0.00 0.00 0.00 45 1010.7
20260504174853 68 199 3.0 10.0 0.00 0.00 0.00 42 1010.7
20260504174618 67 176 3.0 11.0 0.00 0.00 0.00 43 1010.7
20260504174342 68 256 6.0 11.0 0.00 0.00 0.00 46 1010.8
20260504173846 68 184 3.0 12.0 0.00 0.00 0.00 42 1010.7
20260504173354 67 191 3.0 16.0 0.00 0.00 0.00 46 1010.9
20260504173109 67 245 5.0 16.0 0.00 0.00 0.00 42 1010.9
20260504172854 67 270 5.0 16.0 0.00 0.00 0.00 43 1011.0
20260504172400 67 175 2.0 12.0 0.00 0.00 0.00 47 1011.2
20260504171845 67 253 5.0 12.0 0.00 0.00 0.00 43 1011.3
20260504171610 66 188 5.0 12.0 0.00 0.00 0.00 42 1011.3
20260504171355 67 217 4.0 9.0 0.00 0.00 0.00 45 1011.3
20260504170900 66 194 5.0 11.0 0.00 0.00 0.00 43 1011.4
20260504170408 66 220 4.0 11.0 0.00 0.00 0.00 46 1011.4
20260504170123 65 229 4.0 12.0 0.00 0.00 0.00 46 1011.5
20260504160346 64 202 3.0 15.0 0.00 0.00 0.00 46 1012.1
20260504160107 63 227 3.0 15.0 0.00 0.00 0.00 44 1012.3